Location: Piotrkow Trybunalski
(51.4000°N, 19.6830°E)
Time: 01:01:03
(UTC+01:00)

A-11 Canister half - Pass Details

Date: 18 December 2023
Orbit: 1512 x 1687 km, 47.2° (Epoch: 23 February)

Event Time Altitude Azimuth Distance (km) Brightness Sun altitude
Exits shadow 02:28:46 12° 148° (SSE) 3,750 11.0 -46.9°
Drops below altitude 10° 02:29:20 10° 147° (SSE) 3,913 11.1 -46.8°
Sets 02:32:44 0° 141° (SE) 4,913 11.8 -46.3°
